This is the latest recevied weather packets stored in our database for station/object KP4CRN. If no packets are shown the sender has not sent any weather packets the latest 10 day(s).
| Time | Temp. | Humidity | Pressure | Rain* | Wind** | Luminosity | Snow |
|---|---|---|---|---|---|---|---|
| 1777983109 | 28.89° C | 85% | 1017.5 hPa | 0 mm | - | 353 W/m² | - |
| 1777982806 | 28.33° C | 86% | 1017.4 hPa | 0 mm | - | 360 W/m² | - |
| 1777982501 | 28.33° C | 87% | 1017.4 hPa | 0 mm | - | 350 W/m² | - |
| 1777982196 | 27.78° C | 88% | 1017.4 hPa | 0 mm | - | 314 W/m² | - |
| 1777981894 | 27.78° C | 88% | 1017.3 hPa | 0 mm | - | 295 W/m² | - |
| 1777981590 | 27.78° C | 88% | 1017.5 hPa | 0 mm | - | 253 W/m² | - |
| 1777981287 | 27.22° C | 89% | 1017.3 hPa | 0 mm | - | 186 W/m² | - |
| 1777980983 | 27.22° C | 90% | 1017.4 hPa | 0 mm | - | 199 W/m² | - |
| 1777980680 | 27.22° C | 90% | 1017.3 hPa | 0 mm | - | 177 W/m² | - |
| 1777980376 | 26.67° C | 91% | 1017.4 hPa | 0 mm | - | 166 W/m² | - |
| 1777980074 | 26.67° C | 91% | 1017.3 hPa | 0 mm | - | 152 W/m² | - |
| 1777979768 | 27.22° C | 90% | 1017.3 hPa | 0 mm | - | 142 W/m² | - |
| 1777979464 | 26.67° C | 90% | 1017.2 hPa | 0 mm | - | 133 W/m² | - |
| 1777979161 | 26.67° C | 90% | 1017.3 hPa | 0 mm | - | 117 W/m² | - |
| 1777978858 | 26.67° C | 90% | 1017.2 hPa | 0 mm | - | 105 W/m² | - |
| 1777978554 | 26.67° C | 90% | 1017.2 hPa | 0 mm | - | 94 W/m² | - |
| 1777978250 | 26.11° C | 91% | 1017.2 hPa | 0 mm | - | 82 W/m² | - |
| 1777977947 | 26.11° C | 91% | 1017.1 hPa | 0 mm | - | 70 W/m² | - |
| 1777977645 | 26.11° C | 92% | 1017.1 hPa | 0 mm | - | 60 W/m² | - |
| 1777977341 | 25.56° C | 93% | 1016.9 hPa | 0 mm | - | 49 W/m² | - |
| 1777977039 | 25.56° C | 93% | 1016.8 hPa | 0 mm | - | 39 W/m² | - |
| 1777976736 | 25° C | 94% | 1016.6 hPa | 0 mm | - | 28 W/m² | - |
| 1777976433 | 25° C | 94% | 1016.6 hPa | 0 mm | - | 23 W/m² | - |
| 1777976132 | 25° C | 95% | 1016.5 hPa | 0 mm | - | 17 W/m² | - |
| 1777975828 | 25° C | 95% | 1016.4 hPa | 0 mm | - | 12 W/m² | - |
* Rain latest hour (hover to see other rain measurements)
** Current wind speed in m/s (hover to see current wind gust speed)